Location: ?????????
(41.1143°N, 22.7905°E)
Time: 01:19:20
(UTC+00:00)

Cosmos-2242 - Pass Details

Date: 13 December 2025
Orbit: 566 x 591 km, 82.5° (Epoch: 17 January)

Event Time Altitude Azimuth Distance (km) Brightness Sun altitude
Rises 17:02:25 0° 203° (SSW) 2,807 6.9 -22.1°
Reaches altitude 10° 17:04:42 10° 210° (SSW) 1,913 6.1 -22.6°
Maximum altitude 17:08:43 41° 282° (WNW) 858 4.2 -23.3°
Enters shadow 17:12:23 12° 351° (N) 1,785 5.4 -24.0°
